TimeCST,TemperatureF,Dew PointF,Humidity,Sea Level PressureIn,VisibilityMPH,Wind Direction,Wind SpeedMPH,Gust SpeedMPH,PrecipitationIn,Events,Conditions,WindDirDegrees,DateUTC
12:53 AM,21.0,16.0,81,30.16,10.0,North,5.8,-,N/A,,Overcast,350,2013-01-01 06:53:00
1:53 AM,21.9,17.1,82,30.16,10.0,North,10.4,-,N/A,,Overcast,350,2013-01-01 07:53:00
2:53 AM,19.9,16.0,85,30.17,10.0,North,12.7,-,N/A,,Overcast,360,2013-01-01 08:53:00
3:53 AM,18.0,14.0,84,30.19,10.0,NNW,6.9,-,N/A,,Overcast,340,2013-01-01 09:53:00
4:53 AM,14.0,10.0,84,30.21,10.0,NW,6.9,-,N/A,,Clear,310,2013-01-01 10:53:00
5:53 AM,12.0,8.1,84,30.22,9.0,NW,5.8,-,N/A,,Clear,310,2013-01-01 11:53:00
6:53 AM,12.0,8.1,84,30.24,9.0,NW,8.1,-,N/A,,Clear,310,2013-01-01 12:53:00
7:53 AM,9.0,3.9,80,30.27,10.0,NW,9.2,-,N/A,,Clear,320,2013-01-01 13:53:00
8:53 AM,10.4,5.0,79,30.18,9.0,WNW,6.9,-,N/A,,Clear,300,2013-01-01 14:53:00
9:53 AM,14.0,9.0,80,30.33,9.0,NW,5.8,-,N/A,,Clear,310,2013-01-01 15:53:00
10:53 AM,19.0,12.9,77,30.34,10.0,NW,5.8,-,N/A,,Clear,320,2013-01-01 16:53:00
11:53 AM,24.1,16.0,71,30.32,10.0,NNW,4.6,-,N/A,,Clear,340,2013-01-01 17:53:00
12:53 PM,26.1,16.0,66,30.28,10.0,NNW,5.8,-,N/A,,Clear,340,2013-01-01 18:53:00
1:53 PM,27.0,17.1,66,30.23,10.0,North,4.6,-,N/A,,Clear,10,2013-01-01 19:53:00
2:53 PM,27.0,17.1,66,30.24,10.0,NW,4.6,-,N/A,,Clear,310,2013-01-01 20:53:00
3:53 PM,27.0,17.1,66,30.25,10.0,Calm,Calm,-,N/A,,Clear,0,2013-01-01 21:53:00
4:53 PM,24.1,17.1,75,30.29,10.0,West,3.5,-,N/A,,Clear,270,2013-01-01 22:53:00
5:53 PM,19.9,15.1,81,30.30,10.0,WNW,4.6,-,N/A,,Clear,290,2013-01-01 23:53:00
6:53 PM,18.0,12.9,81,30.32,10.0,Calm,Calm,-,N/A,,Clear,0,2013-01-02 00:53:00
7:53 PM,16.0,12.0,84,30.34,10.0,WNW,3.5,-,N/A,,Clear,300,2013-01-02 01:53:00
8:53 PM,14.0,10.0,84,30.32,10.0,NW,5.8,-,N/A,,Clear,310,2013-01-02 02:53:00
9:53 PM,12.9,9.0,84,30.32,9.0,WNW,8.1,-,N/A,,Clear,290,2013-01-02 03:53:00
10:53 PM,12.9,8.1,81,30.32,9.0,NW,6.9,-,N/A,,Clear,310,2013-01-02 04:53:00
11:53 PM,12.0,8.1,84,30.32,10.0,WSW,9.2,-,N/A,,Clear,250,2013-01-02 05:53:00